Regional Weather Roundup
Issued by NWS Grand Forks, ND

Home | Current Version | Previous Version | Text Only | Print | Product List | Glossary Off
Versions: 1 2 3 4 5 6 7 8 9 10 11 12 13 14 15 16 17 18 19 20 21 22 23 24 25 26 27 28 29 30 31 32 33 34 35 36 37 38 39 40 41 42 43 44 45 46 47 48 49 50

000
ASUS43 KFGF 042310
RWRFGF
PRAIRIE TO PINES  WEATHER ROUNDUP
NATIONAL WEATHER SERVICE EASTERN NORTH DAKOTA/GRAND FORKS ND
600 PM CDT WED MAY 04 2016

 **SATELLITE DATA USED TO AUGMENT SKY COVER AT AUTOMATED STATIONS**
 *****  WEATHER ACROSS EASTERN NORTH DAKOTA  *****

CITY           SKY/WX    TMP DP  RH WIND       PRES   REMARKS
GRAND FORKS    MOSUNNY   71  30  21 S3        29.96F
GRAND FRKS AFB SUNNY     70  27  19 VRB3      29.97F
DEVILS LAKE    MOSUNNY   72  38  29 SE8       29.96F
FARGO          SUNNY     70  26  19 N7        29.98S
WAHPETON ARPT  CLEAR     70  21  16 N9        29.99F
$$

 ***** WEATHER ACROSS CENTRAL AND WESTERN NORTH DAKOTA  *****

CITY           SKY/WX    TMP DP  RH WIND       PRES   REMARKS
BISMARCK       SUNNY     80  43  26 MISG      29.97F
MINOT          SUNNY     88  36  15 SW12      29.89F
JAMESTOWN      SUNNY     73  36  25 NW5       29.98F
MINOT AFB      MOSUNNY   85  39  19 W10       29.88S
GARRISON         N/A     82  40  22 S8        29.93F
WILLISTON      SUNNY     84  36  18 SW14      29.89F
DICKINSON      SUNNY     79  35  20 SW13      29.95F
HETTINGER      SUNNY     77  41  27 S12       30.01F
$$

 *****  OTHER AIRPORT OBSERVATIONS IN OUR AREA  *****

CITY           SKY/WX    TMP DP  RH WIND       PRES   REMARKS
WALHALLA       FAIR      75  36  23 SW7       29.93F
GRAFTON AIRPOR FAIR      70  30  23 VRB7      29.97F
VALLEY CITY AR FAIR      70  28  21 NW5       30.01F
CANDO          FAIR      75  36  23 S15       29.96F
CAVALIER APRT  FAIR      72  34  25 S8        29.94F
GWINNER        FAIR      72  28  20 W3        30.00F
SHEYENNE NWR     N/A     72  29  20 N3        29.95S
ROLLA          FAIR      77  36  22 SW13      29.94F
 ***** THE ABOVE OBSERVATIONS ARE NON NWS ARE NOT QUALITY
       CONTROLLED AND MAY MIS-REPORT RAIN FOR SNOW...
$$

  *****  WEATHER ACROSS NORTHERN MINNESOTA  *****

CITY           SKY/WX    TMP DP  RH WIND       PRES   REMARKS
FLAG ISLAND    SUNNY     52  37  58 S8        29.97F
WARROAD        SUNNY     55  30  38 E8        29.99S
ROSEAU         SUNNY     66  23  19 CALM      29.97F
HALLOCK        SUNNY     70  21  16 CALM      29.96F
THF RVR FALLS  SUNNY     66  27  22 N5        29.99S
BAUDETTE       SUNNY     61  17  18 N7        29.99F
WASKISH        SUNNY     63  21  20 N5        29.99S
CROOKSTON      SUNNY     70  30  23 NW8       29.98F
STEPHEN NDAWN    N/A     70  27  19 S3          N/A
GREENBUSH NDAW   N/A     68  28  22 SW2         N/A
$$
  *****  WEATHER ACROSS CENTRAL AND WEST MINNESOTA  *****

CITY           SKY/WX    TMP DP  RH WIND       PRES   REMARKS
FOSSTON        SUNNY     68  21  17 N8        29.99F
BEMIDJI        SUNNY     62  21  20 N10       29.99S
PARK RAPIDS    SUNNY     68  25  19 N9        29.97S
ELBOW LAKE     FAIR      66  32  28 NW14      29.99S
WADENA         SUNNY     66  28  24 N9G18     29.97S
DETROIT LAKES  SUNNY     64  27  24 N8        30.00S
MOORHEAD       SUNNY     70  25  18 N7        29.99F
FERGUS FALLS   SUNNY     66  34  30 N6G16     29.96S
MORRIS MN      SUNNY     70  30  23 NW12G22   29.97F
STAPLES        SUNNY     64  18  16 N10G16    29.97S
$$
  *****  WEATHER ELSEWHERE ACROSS MINNESOTA  *****

CITY           SKY/WX    TMP DP  RH WIND       PRES   REMARKS
DULUTH         SUNNY     54  27  35 SE13      29.96R
INTRNTL FALLS  SUNNY     60  19  20 E8        29.97F
ELY            SUNNY     57  18  21 N5        29.96S
CLOQUET        SUNNY     63   9  12 N6G20     29.95S
WHEATON        SUNNY     72  34  25 NW14      30.00F
BRAINERD       SUNNY     63  22  20 N13       29.98R
HIBBING        SUNNY     60  15  17 N7        29.95S
ALEXANDRIA     SUNNY     66  24  20 NW14      29.99S
SAINT CLOUD    SUNNY     66  21  18 N12G18    29.96R
MINNEAPOLIS    SUNNY     65  25  22 N13       29.94S
$$

  *****  WEATHER ACROSS SOUTH DAKOTA  *****

CITY           SKY/WX    TMP DP  RH WIND       PRES   REMARKS
SIOUX FALLS    SUNNY     68  33  27 NW15      30.00S
BROOKINGS      SUNNY     67  32  27 N12       30.00F
WATERTOWN      SUNNY     68  27  21 N12       30.01F
HURON          SUNNY     71  34  25 NW10      30.02F
SISSETON         N/A     70  25  18 N9G18     29.99F
ABERDEEN       SUNNY     75  33  21 N9        30.01F
MITCHELL       SUNNY     70  34  26 NW10      30.04F
PIERRE         SUNNY     73  36  25 SW3       30.03F
MOBRIDGE       SUNNY     76  43  30 SE8       29.99F
RAPID CITY     SUNNY     75  42  30 S14       30.04F
$$

  *****  SOME WEATHER IN NEARBY STATES *****

CITY           SKY/WX    TMP DP  RH WIND       PRES   REMARKS
GLASGOW MT     SUNNY     85  38  18 SW7       29.85F
GREAT FALLS MT SUNNY     80  31  16 SW13      29.89F
CHEYENNE WY    SUNNY     72  26  18 N6        30.17F
SCOTTSBLUFF NE SUNNY     76  39  26 SE6       30.09F
OMAHA NE       MOSUNNY   69  38  32 N13       30.00S
DES MOINES IA  MOSUNNY   67  30  25 NW18G30   29.94F
DAVENPORT IA   MOSUNNY   62  33  33 N21       29.86S
CHICAGO IL     CLOUDY    49  38  65 NE12      29.82R
EAU CLAIRE WI  SUNNY     63  17  17 N12G22    29.91R
LA CROSSE WI   SUNNY     65  24  21 N17       29.88R
$$

  *****  SOME NATIONAL WEATHER *****

CITY           SKY/WX    TMP DP  RH WIND       PRES   REMARKS
LA GUARDIA NY  DRIZZLE   51  49  92 NE8       29.73R
RALEIGH NC     MOSUNNY   70  49  47 W5        29.62S
ATLANTA GA     MOSUNNY   69  42  37 W14       29.71S
NEW ORLEANS LA MOSUNNY   77  49  37 NW12      29.87S
OKLAHOMA CITY  SUNNY     78  44  29 N16       30.00S
ALBUQUERQUE NM MOSUNNY   76  19  11 SW12      30.18F
SALT LAKE CITY PTSUNNY   82  29  14 S15G21    29.98F
LOS ANGELES CA MOSUNNY   64  53  67 W12       29.91F
BOISE ID       CLOUDY    82  33  17 SE7       29.84F
SEATTLE WA     CLOUDY    57  47  69 N9        30.03F
$$

*** WEATHER ACROSS MANITOBA...SASKATCHEWAN AND ONTARIO ***
                ***ONTARIO***

CITY           SKY/WX    TMP DP  RH WIND       PRES   REMARKS
GERALDTON      CLOUDY    37  32  81 N10       29.99R
THUNDER BAY    MOSUNNY   55  30  38 SE12      29.95R
SIOUX LOOKOUT  PTSUNNY   55  16  21 NW3       29.96F
TORONTO        CLOUDY    57  36  44 E14       29.70R
BIG TROUT LK   PTSUNNY   46  16  29 SE5       29.88F
PICKLE LAKE    PTSUNNY   54   7  15 VRB2      29.93F
DRYDEN         SUNNY     59  14  17 VRB3      29.96F
KENORA         PTSUNNY   61  18  18 SW8       29.98S
$$
                *** MANITOBA***

CITY           SKY/WX    TMP DP  RH WIND       PRES   REMARKS
BRANDON        PTSUNNY   82  39  21 S10       29.85F
DAUPHIN        SUNNY     84  41  21 SW10G17   29.76F
ISLAND LAKE    LGT RAIN  54  28  37 SW15G22   29.78S
PILOT MOUND      N/A     77  32  19 SW13G18     N/A
THE PAS        CLOUDY    81  48  32 SE13      29.63F
THOMPSON       MOSUNNY   68  39  34 S8        29.64F
WINNIPEG       PTSUNNY   70  30  23 S12G18    29.92F
LYNN LAKE      SUNNY     79  41  25 NW6       29.60S
CHURCHILL      MOSUNNY   48  32  53 S10       29.62F
GILLAM         SUNNY     63  34  34 SW20G26   29.65F
$$
                ***SASKATCHEWAN***

CITY           SKY/WX    TMP DP  RH WIND       PRES   REMARKS
ESTEVAN        PTSUNNY   84  39  20 SW20G26   29.86F
KINDERSLEY     MOSUNNY   86  32  14 W17G24    29.76F
LLOYDMINSTER   NOT AVBL
PRINCE ALBERT  MOSUNNY   90  36  14 SW10G17   29.62F
REGINA         MOSUNNY   86  34  15 W13G26    29.78F
YORKTON        SUNNY     86  32  14 SW17G25   29.75F
N. BATTLEFORD  SUNNY     86  30  13 W16G23    29.72S
LA RONGE       MOSUNNY   90  30  12 SW8       29.56F
SASKATOON      SUNNY     88  28  11 W16G30    29.72S
SWIFT CURRENT  SUNNY     84  30  14 W6        29.82F
$$
NOTE: THESE ARE AUTOMATED STATIONS WITH LIMITED QUALITY CONTROL
      "FAIR" INDICATES FEW OR NO CLOUDS BELOW 12,000 FEET WITH NO
      SIGNIFICANT WEATHER AND/OR OBSTRUCTIONS TO VISIBILITY.
      SKY/WX - SKY CONDITION AND SIGNIFICANT WEATHER.
      TMP - AIR TEMPERATURE.    DP   - DEWPOINT TEMPERATURE.
      RH  - RELATIVE HUMIDITY.  PRES - PRESSURE.
      HX  - HEAT INDEX.         WCI  - WIND CHILL INDEX.
$




USA.gov is the U.S. government's official web portal to all federal, state and local government web resources and services.